www.pogodaiklimat.ru
Время
и дата
14:03 27.06
14:33 27.06
14:37 27.06
14:51 27.06
15:51 27.06
16:03 27.06
16:51 27.06
17:51 27.06
18:51 27.06
19:51 27.06
20:51 27.06
21:51 27.06
22:51 27.06
23:51 27.06
00:51 28.06
01:51 28.06
02:51 28.06
03:51 28.06
04:51 28.06
05:51 28.06
06:51 28.06
07:51 28.06
08:51 28.06
09:51 28.06
10:51 28.06
11:51 28.06
12:51 28.06
13:51 28.06
14:51 28.06
15:51 28.06
16:51 28.06
17:51 28.06
18:51 28.06
19:51 28.06
20:51 28.06
21:51 28.06
22:51 28.06
23:51 28.06
00:51 29.06
01:51 29.06
02:51 29.06
03:51 29.06
04:51 29.06
05:51 29.06
06:51 29.06
07:51 29.06
08:51 29.06
09:51 29.06
Ветер
(напр.,м/с)
Видим. Явления Облачность Т
(С)
Тd
(С)
f
(%)
Тe
(С)
Тes
(С)
Комфортность P
(гПа)
Po
(гПа)
Тmin
(С)
Tmax
(С)
R
(мм)
R24
(мм)
S
(см)
Ю 2 16 км 10/10 630 м +23.9 +21.7 88 +31 +31 очень
душно
1013.1
Ю 2 11 км слабый дождь 10/8 150 м
[Ac]
+22.8 +21.1 90 +30 +31 очень
душно
1013.1
ЮЗ 1 2 км слабый дождь, дымка 10/8 150 м
[Ac]
+22.2 +21.1 93 +29 +30 очень
душно
1013.1
штиль 0 5 км слабый дождь, дымка 10/10 270 м +22.8 +21.7 94 +31 +31 очень
душно
1013.6 1013.1
ЮВ 2 13 км слабый дождь 10/10 840 м +22.8 +21.7 94 +31 +31 очень
душно
1013.5 1013.1 3.8
Ю 2 10 км слабый дождь, дымка 8/5 210 м
[Ac]
+22.8 +21.7 94 +31 +32 очень
душно
1013.4
Ю 1 10 км слабый дождь, дымка 10/5 210 м
[Ac]
+22.2 +21.1 93 +29 +30 очень
душно
1013.8 1013.4
ЮЗ 1 14 км 10/5 210 м
[Ac]
+22.2 +21.1 93 +29 +30 очень
душно
1014.0 1013.7
ЮЗ 2 16 км 8/0 2850 м
[Ac Ci]
+22.2 +20.6 91 +29 +29 очень
душно
1014.5 1014.1 +21.7 +24.4 4.6
З 2 16 км 8/2 1950 м
[Ac Ci]
+22.8 +19.4 81 +29 +29 очень
душно
1015.2 1014.8
З 2 16 км 8/0 3900 м
[Ac Ci]
+22.2 +20.0 87 +28 +28 душно 1015.8 1015.4
СЗ 1 16 км 8/0 7500 м
[Ci]
+23.3 +18.3 73 +29 +29 душно 1015.8 1015.4
СЗ 1 16 км 5/0 7500 м
[Ci]
+21.7 +18.3 81 +26 +26 душно 1016.1 1015.8
С 2 16 км 5/5 1800 м
[Ci]
+20.6 +17.8 84 +24 +24 комфорт 1016.8 1016.5
С 2 16 км 2/2 1800 м
[Ci]
+19.4 +17.8 90 +22 +22 комфорт 1017.2 1016.8 +19.4 +23.3
С 2 16 км 2/2 1800 м
[Ci]
+18.9 +14.4 75 +20 +20 1017.6 1017.1
С 1 16 км 8/8 1440 м +18.9 +15.0 78 +20 +20 1017.9 1017.5
С 1 16 км 8/8 1500 м +18.3 +13.3 73 +19 +19 1018.3 1017.8
С 1 16 км 8/8 1650 м +18.3 +13.3 73 +19 +19 1019.0 1018.5
штиль 0 16 км 8/8 1800 м
[Ac Ci]
+18.9 +13.9 73 +20 +20 1019.8 1019.5
СЗ 2 16 км 8/8 1950 м
[Ci]
+21.1 +11.1 53 +23 +23 комфорт 1020.5 1020.2 +17.8 +21.1 8.9
С 2 16 км 8/5 1950 м
[Ci]
+21.1 +10.0 49 +23 +23 комфорт 1020.9 1020.5
СЗ 2
{4}
16 км 5/5 1950 м
[Ci]
+22.8 +8.3 39 +24 +26 комфорт 1020.9 1020.5
С 1 16 км 2/2 1950 м
[Ci]
+23.9 +8.9 38 +25 +33 комфорт 1021.0 1020.5
С 2 16 км 5/2 1500 м
[Ac Ci]
+25.0 +8.9 36 +26 +33 жарко 1021.0 1020.5
Ю 2 16 км 5/5 1800 м
[Ci]
+24.4 +11.7 45 +26 +33 жарко 1021.1 1020.9
Ю 2 16 км 8/5 1800 м
[Ci]
+24.4 +11.7 45 +26 +30 жарко 1021.1 1020.9 +20.6 +25.6
ЮВ 2 16 км 8/8 1950 м
[Ci]
+24.4 +12.2 46 +26 +29 жарко 1021.2 1020.9
Ю 2 16 км 8/5 1800 м
[Ci]
+25.0 +11.7 43 +26 +29 жарко 1021.0 1020.5
нст 1 16 км 8/5 1950 м
[Ci]
+26.1 +11.7 41 +27 +32 жарко 1020.7 1020.2
Ю 3 16 км 8/5 1950 м
[Ci]
+23.3 +13.3 53 +26 +28 жарко 1020.9 1020.5
Ю 2 16 км 5/2 1950 м
[Ci]
+22.8 +13.3 55 +26 +27 жарко 1021.3 1020.9
Ю 2 16 км 5/2 1950 м
[Ci]
+21.1 +14.4 66 +24 +24 комфорт 1021.7 1021.2 +21.1 +26.7
Ю 2 16 км 8/2 1950 м
[Ci]
+20.6 +13.9 65 +23 +23 комфорт 1022.0 1021.5
Ю 2 16 км 5/2 1950 м
[Ci]
+20.6 +13.9 65 +23 +23 комфорт 1022.5 1022.2
ЮЗ 2 16 км 8/2 1950 м
[Ci]
+20.0 +15.6 76 +22 +22 комфорт 1022.7 1022.2
ЮЗ 2 16 км 8/0 7500 м
[Ci]
+19.4 +15.6 79 +21 +21 комфорт 1023.0 1022.5
ЮЗ 1 16 км 5/0 7500 м
[Ci]
+18.9 +15.6 81 +20 +20 1023.0 1022.5
ЮЗ 1 16 км 5/0 7500 м
[Ci]
+18.3 +15.6 84 +19 +19 1023.1 1022.5 +17.8 +21.1
ЮЗ 2 16 км 2/0 7500 м
[Ci]
+18.3 +15.6 84 +19 +19 1023.1 1022.9
Ю 1 16 км 8/0 7500 м
[Ci]
+18.3 +16.1 87 +19 +19 1023.2 1022.9
Ю 1 16 км 8/0 7500 м
[Ci]
+18.3 +16.1 87 +19 +19 1023.2 1022.9
ЮЗ 1 16 км 8/0 7200 м
[Ci]
+17.8 +16.1 90 +18 +18 1023.6 1023.2
ЮЗ 1 16 км 8/2 1800 м
[Ci]
+19.4 +17.2 87 +22 +22 комфорт 1023.9 1023.6
Ю 1 16 км 8/2 1800 м
[Ci]
+21.1 +17.2 78 +25 +25 комфорт 1024.3 1023.9 +17.8 +21.1
Ю 2 16 км 5/2 990 м
[Ci]
+22.2 +17.2 73 +27 +29 душно 1024.4 1023.9
ЮЗ 2 16 км 2/2 1140 м
[Ci]
+23.9 +15.6 60 +27 +32 жарко 1024.1 1023.6
ЮЗ 2 16 км 2/2 1500 м
[Ci]
+26.1 +13.3 45 +28 +35 жарко 1024.1 1023.6
Местоположение метеостанции John F Kennedy International Airport: широта 40.6386 долгота -73.7622 высота над уровнем моря 3 м.
В архиве по умолчанию представлена погода в Нью-Йорке за последние 1-2 суток. Обновление информации о фактической погоде в базе происходит ежечасно! Архивные данные за месяц целиком и за предыдущие месяцы Вы можете получить, выбрав интересующий диапазон дат из раскрывающегося списка и нажав кнопку "Ввод!".
Внимание! Архив погоды МЕТАР в базе сайта по станциям, не включенным в климатический монитор, хранится не более 60 дней. Нет смысла пытаться выбрать более раннюю дату.
*Определитесь, кто Вы:
Внимание! Время в таблицах - местное (без учета летнего времени). Для получения всемирного времени необходимо вычесть поправку, которая равна -5 ч.
Смотрите также архив погоды в соседних городах и на ближайших метеорологических станциях:
Партнеры нашего сайта:      
Пояснения к столбцам:
  • Ветер - указаны скорость ветра в м/с - средняя за 10 мин, порывы в срок и между сроками (в фигурных скобках) и направление, откуда дует ветер: С - северный,
  • СВ - северо-восточный, В - восточный, ЮВ - юго-восточный, Ю - южный, ЮЗ - юго-западный, З - западный, СЗ - северо-западный.
  • Видимость - горизонтальная дальность видимости в метрах или километрах. При видимости от 1 до 10 км при отсутствии осадков обычно наблюдается дымка, при ухудшении видимости до 1 км и менее - туман. В сухую погоду видимость может ухудшаться дымом, пылью или мглою.
  • Явления - указаны атмосферные явления, наблюдавшиеся в срок или в последний час перед сроком; фигурными скобками обозначены явления, наблюдавшиеся между сроками (за 1-3 часа до срока); квадратными скобками обозначены град или гололедные отложения с указанием их диаметра в мм.
  • Облачность - указаны через наклонную черту общая и нижняя облачность в баллах и высота нижней границы облаков в метрах; квадратными скобками обозначены формы облаков: Ci - перистые, Cs - перисто-слоистые, Cc - перисто-кучевые, Ac - высококучевые, As - высокослоистые, Sc - слоисто-кучевые, Ns - слоисто-дождевые, Cu - кучевые, Cb - кучево-дождевые. Подробнее классификацию облаков см. в Атласе облаков (PDF).
  • T - Температура воздуха - температура, измеренная на высоте 2 м над землей.
  • Td - Температура точки росы - температура, при понижении до которой содержащийся в воздухе водяной пар достигнет насыщения.
  • f - Относительная влажность воздуха - влажноcть воздуха, измеренная на высоте 2 м над землей.
  • Te - Эффективная температура - температура, которую ощущает одетый по сезону человек в тени. Характеристика душности погоды. При расчете учитывается влияние влажности воздуха и скорости ветра на теплоощущения человека.
  • Tes - Эффективная температура на солнце - температура, которую ощущает человек, с поправкой на солнечный нагрев. Характеристика знойности погоды. Зависит от высоты солнца над горизонтом, облачности и скорости ветра. Ночью, в пасмурную погоду, а также при ветре 12 м/с и более поправка равна нулю.
  • P - Атмосферное давление - приведенное к уровню моря атмосферное давление.
  • Po - Атмосферное давление - измеренное на уровне метеостанции атмосферное давление.
  • Tmin - Минимальная температура - минимум температуры воздуха на высоте 2 м над землей.
  • Tmax - Максимальная температура - максимум температуры воздуха на высоте 2 м над землей.
  • R - Количество осадков - Количество выпавших осадков за период времени, мм. При наведении курсора мыши на число - период времени, за который выпало указанное количество осадков.
  • R24 - Количество осадков - Количество выпавших осадков за 24 часа, мм.
  • S - Снежный покров - Высота снежного покрова, см. При наведении курсора мыши на число - состояние снежного покрова и степень покрытия местности в баллах.